Temp
77 78 78 76 77 77 77 76 75 75 74 73 72 72 72 73 74 76 77 75 74 75
75 76 75 75 76 77 76 76 75 74 74 73 72 70 70 69 70 71 72 73 74 74
74 75 74 75 74 74 74 73 73 73 73 72 72 72 70 69 70 70 69 70 71 73
72 75 75 74 74 74 73 73 72 72 72 71 71 71 70 69 69 69 68 69 69 70
76 76 75 74 73 74 72 72 72 72 71 72 72 72 72 71 70 68 68 67 69 69
75 75 74 74 74 74 73 73 73 73 71 71 71 71 70 70 70 69 68 68 68 67
75 75 75 74 74 73 73 72 72 72 72 72 72 72 71 71 70 70 67 66 67 68
75 76 75 74 74 73 73 72 72 72 72 73 73 74 72 71 70 69 69 69 70 67
74 74 74 74 73 72 72 71 71 71 72 72 73 59 62 69 70 69 69 68 69 70
71 70 73 73 73 72 71 70 69 69 71 71 70 59 59 63 70 69 68 67 69 71
69 69 72 71 68 67 70 69 68 68 68 69 67 56 57 61 69 68 67 68 68 68
68 68 69 69 65 64 67 68 66 65 65 67 64 55 55 64 69 67 66 67 67 68
70 68 71 67 66 66 67 69 68 63 61 58 65 52 53 62 71 67 68 67 66 54
70 69 69 66 66 63 63 66 65 59 59 59 57 60 52 53 69 66 67 67 67 66
MSLP
1016.25 1016.13 1016.01 1016.21 1016.27 1016.41 1016.64 1016.74 1016.63 1016.55 1016.52 1016.43 1016.46 1016.12 1015.79 1015.74 1015.57 1015.44 1015.27 1015.22 1015.31 1015.20
1016.61 1016.55 1016.22 1016.35 1016.54 1016.77 1017.05 1016.81 1016.71 1016.67 1016.81 1016.76 1016.79 1016.71 1016.40 1016.30 1016.17 1015.97 1015.65 1015.55 1015.47 1015.34
1016.79 1016.78 1016.73 1016.42 1016.60 1016.87 1017.13 1017.19 1017.08 1017.01 1017.00 1017.05 1017.23 1017.02 1016.87 1016.77 1016.63 1016.30 1016.16 1015.97 1015.82 1015.60
1016.50 1016.57 1016.74 1016.60 1016.55 1016.90 1017.35 1017.61 1017.52 1017.36 1017.34 1017.47 1017.81 1017.54 1017.21 1017.21 1016.92 1016.70 1016.55 1016.35 1016.18 1016.13
1016.59 1016.80 1016.77 1016.79 1016.81 1017.19 1017.66 1017.91 1017.71 1017.71 1017.81 1018.02 1018.19 1017.85 1017.64 1017.54 1017.33 1017.20 1017.05 1016.83 1016.72 1016.63
1016.92 1017.05 1017.05 1017.01 1017.08 1017.41 1017.83 1018.11 1018.13 1018.18 1018.28 1018.46 1018.40 1018.08 1018.24 1018.14 1017.96 1017.89 1017.75 1017.55 1017.31 1017.27
1016.97 1017.15 1017.19 1017.35 1017.23 1017.59 1018.00 1018.32 1018.61 1018.71 1018.72 1018.84 1018.57 1018.55 1018.59 1018.54 1018.31 1018.30 1018.47 1018.40 1018.09 1017.92
1016.84 1017.17 1017.48 1017.76 1017.82 1017.86 1018.20 1018.53 1018.77 1018.91 1019.04 1019.09 1019.07 1019.07 1018.98 1019.06 1018.91 1018.63 1018.71 1018.84 1018.68 1018.83
1016.25 1016.92 1017.35 1017.66 1018.06 1018.04 1018.14 1018.63 1019.07 1019.18 1019.30 1019.44 1019.61 1019.93 1019.70 1019.47 1019.47 1019.37 1019.22 1019.18 1019.29 1019.27
1016.28 1016.49 1017.21 1017.70 1017.98 1018.41 1018.05 1018.62 1019.30 1019.75 1019.74 1019.79 1020.16 1020.50 1020.37 1020.13 1019.99 1019.90 1019.94 1019.87 1019.74 1019.61
1016.46 1016.34 1016.77 1017.70 1018.22 1018.61 1018.06 1018.55 1019.29 1019.83 1020.19 1020.29 1020.71 1020.97 1020.91 1020.67 1020.43 1020.46 1020.50 1020.42 1020.42 1020.46
1016.50 1016.45 1016.43 1017.46 1018.05 1018.23 1018.03 1018.78 1019.54 1020.02 1020.32 1020.58 1021.05 1021.25 1021.21 1020.82 1020.66 1020.73 1020.75 1020.93 1021.02 1021.01
1015.99 1016.32 1016.49 1017.00 1017.65 1018.10 1018.34 1018.87 1019.59 1020.30 1020.61 1021.00 1021.15 1021.49 1021.49 1021.16 1020.80 1020.80 1020.84 1021.17 1021.51 1021.89
1016.09 1016.27 1016.64 1017.21 1017.59 1018.24 1018.85 1019.23 1019.78 1020.33 1020.71 1021.09 1021.38 1021.74 1021.70 1021.59 1021.22 1021.30 1021.09 1021.40 1021.69 1022.17
Wind_Speed
6 5 6 6 5 5 4 5 5 6 7 8 6 5 5 3 3 3 3 5 5 5
7 5 7 8 6 5 4 5 7 7 7 7 7 6 6 5 5 4 4 3 1 3
7 6 6 8 9 8 8 7 7 8 8 8 7 6 6 5 5 7 6 5 6 4
7 8 6 7 9 9 8 7 7 8 9 9 7 6 7 7 9 9 9 8 7 6
8 8 8 9 10 9 8 7 8 8 8 7 6 8 9 9 9 10 10 10 10 9
8 7 8 9 9 9 8 8 8 8 9 8 8 10 10 10 11 10 10 10 11 10
6 5 6 8 9 9 8 8 7 7 8 8 9 10 10 10 11 11 10 10 11 11
7 6 6 6 7 9 7 7 6 6 6 7 7 6 8 9 9 10 11 10 11 11
10 8 7 7 7 8 9 7 5 5 5 6 6 6 9 8 9 9 9 9 10 10
8 10 9 8 8 6 9 8 6 4 4 6 6 4 7 6 8 8 9 10 9 9
10 10 11 7 6 6 9 9 6 5 4 5 5 4 6 6 7 8 8 8 9 9
5 8 10 10 8 7 8 8 6 5 5 4 4 3 3 3 6 7 8 7 7 7
7 7 11 8 7 4 6 7 6 6 4 3 4 2 2 0 4 6 6 6 7 10
4 6 4 4 5 6 6 8 7 7 5 3 2 3 4 1 3 4 4 4 5 6
Wind_Direction
147 145 125 107 99 75 54 42 28 38 31 26 12 5 23 16 9 274 248 258 236 250
126 137 110 106 99 91 65 49 39 42 38 33 32 26 37 35 33 48 44 25 343 246
130 121 120 114 98 80 63 50 51 50 46 37 25 32 54 50 55 56 40 33 28 360
143 125 122 101 93 88 78 64 68 66 60 52 40 45 66 61 55 59 55 46 42 34
136 142 130 117 103 93 85 71 68 71 74 72 63 57 62 65 59 58 55 56 57 43
136 142 128 114 108 102 97 85 79 77 76 76 74 73 70 68 67 57 55 53 55 51
142 133 129 127 116 108 102 94 81 75 76 73 75 76 74 73 74 68 57 51 50 46
145 139 128 116 113 111 102 92 93 90 85 77 67 61 76 69 72 79 74 63 63 55
150 140 140 134 129 124 116 99 78 76 87 86 75 53 52 66 71 67 67 68 62 59
157 146 158 150 150 148 122 110 93 73 81 90 86 82 79 55 73 75 70 63 61 62
185 159 147 156 162 161 131 121 129 112 103 102 83 81 94 89 90 84 72 69 71 71
200 162 152 174 175 161 131 133 132 123 123 126 100 76 105 128 108 90 75 66 57 75
178 173 175 186 156 137 122 140 141 122 98 58 146 153 134 223 112 107 103 91 70 51
159 178 184 134 127 135 139 142 137 124 109 97 30 174 168 347 101 112 104 96 95 80